AUA71 LOWW-HECA

Flight info

Callsign AUA71
Flight time 3h 0m
Altitude 37000
Route ARSIN DCT NALOX DCT OSDUK DCT SIVLA DCT AKIKA DCT MAVAR DCT BITLA DCT SIGFO DCT NEVRA DCT KUMBI L612 BLT A16 CVO
Aircraft A320/M-SDE3FGHIRWY/LB1

Departure

Time 2026-04-20 18:14
Airport Vienna International Airport (LOWW)

Arrival

Time 2026-04-20 21:15
Airport Cairo International Airport (HECA)
Time Latitude Longitude Altitude Speed Heading
2026-04-20 17:41 48.11746 16.56683 618 ft 0 kts 25°
2026-04-20 17:45 48.11746 16.56682 617 ft 0 kts 25°
2026-04-20 18:04 48.11745 16.56682 610 ft 1 kts 25°
2026-04-20 18:04 48.11735 16.56675 610 ft 1 kts 25°
2026-04-20 18:04 48.11725 16.56668 623 ft 2 kts 25°
2026-04-20 18:05 48.11701 16.56651 622 ft 2 kts 25°
2026-04-20 18:05 48.11688 16.56641 627 ft 2 kts 16°
2026-04-20 18:05 48.11674 16.56638 622 ft 2 kts 333°
2026-04-20 18:06 48.11665 16.56652 623 ft 2 kts 296°
2026-04-20 18:06 48.11662 16.56661 625 ft 1 kts 296°
2026-04-20 18:08 48.11664 16.56655 621 ft 3 kts 296°
2026-04-20 18:09 48.11684 16.56596 624 ft 7 kts 296°
2026-04-20 18:09 48.11703 16.56540 614 ft 5 kts 297°
2026-04-20 18:09 48.11713 16.56509 613 ft 6 kts 297°
2026-04-20 18:09 48.11734 16.56444 618 ft 10 kts 296°
2026-04-20 18:10 48.11745 16.56310 619 ft 14 kts 226°
2026-04-20 18:10 48.11701 16.56276 616 ft 1 kts 206°
2026-04-20 18:10 48.11659 16.56242 622 ft 12 kts 213°
2026-04-20 18:10 48.11591 16.56185 618 ft 10 kts 180°
2026-04-20 18:11 48.11542 16.56249 617 ft 13 kts 118°
2026-04-20 18:11 48.11493 16.56400 614 ft 19 kts 116°
2026-04-20 18:11 48.11435 16.56582 616 ft 20 kts 115°
2026-04-20 18:11 48.11372 16.56771 613 ft 21 kts 116°
2026-04-20 18:12 48.11307 16.56971 616 ft 22 kts 116°
2026-04-20 18:12 48.11239 16.57179 618 ft 23 kts 116°
2026-04-20 18:12 48.11169 16.57394 612 ft 23 kts 115°
2026-04-20 18:12 48.11101 16.57605 614 ft 11 kts 116°
2026-04-20 18:13 48.11042 16.57643 610 ft 9 kts 190°
2026-04-20 18:13 48.10993 16.57608 610 ft 10 kts 206°
2026-04-20 18:13 48.10942 16.57512 623 ft 12 kts 258°
2026-04-20 18:13 48.10965 16.57379 614 ft 16 kts 300°
2026-04-20 18:14 48.11058 16.57099 615 ft 60 kts 296°
2026-04-20 18:14 48.11341 16.56231 614 ft 123 kts 296°
2026-04-20 18:14 48.11790 16.54844 641 ft 168 kts 295°
2026-04-20 18:14 48.12234 16.53346 1468 ft 150 kts 282°
2026-04-20 18:15 48.12023 16.51805 2062 ft 161 kts 238°
2026-04-20 18:15 48.11155 16.50673 2534 ft 176 kts 217°
2026-04-20 18:15 48.10073 16.49593 2753 ft 198 kts 217°
2026-04-20 18:15 48.08865 16.48364 2996 ft 221 kts 216°
2026-04-20 18:16 48.07387 16.47427 3284 ft 246 kts 189°
2026-04-20 18:16 48.05648 16.47558 3894 ft 254 kts 173°
2026-04-20 18:16 48.03880 16.47909 4628 ft 260 kts 174°
2026-04-20 18:16 48.02017 16.48257 5135 ft 276 kts 174°
2026-04-20 18:17 48.00092 16.48609 5927 ft 280 kts 175°
2026-04-20 18:17 47.98151 16.48952 6754 ft 284 kts 172°
2026-04-20 18:17 47.96258 16.49927 7528 ft 290 kts 159°
2026-04-20 18:17 47.94402 16.51146 8305 ft 295 kts 159°
2026-04-20 18:18 47.92457 16.52440 8598 ft 318 kts 159°
2026-04-20 18:18 47.90387 16.53806 9137 ft 329 kts 159°
2026-04-20 18:18 47.88272 16.55188 9878 ft 335 kts 160°
2026-04-20 18:18 47.86118 16.56587 10558 ft 340 kts 160°
2026-04-20 18:19 47.83921 16.58002 11114 ft 349 kts 160°
2026-04-20 18:19 47.81673 16.59440 11788 ft 353 kts 160°
2026-04-20 18:19 47.79403 16.60890 12481 ft 357 kts 160°
2026-04-20 18:19 47.77107 16.62359 13172 ft 361 kts 160°
2026-04-20 18:20 47.74788 16.63843 13858 ft 365 kts 160°
2026-04-20 18:20 47.72445 16.65339 14457 ft 368 kts 160°
2026-04-20 18:20 47.70082 16.66846 15062 ft 371 kts 160°
2026-04-20 18:20 47.67698 16.68366 15660 ft 375 kts 161°
2026-04-20 18:21 47.65295 16.69899 16258 ft 378 kts 161°
2026-04-20 18:21 47.62869 16.71442 16851 ft 381 kts 161°
2026-04-20 18:21 47.60418 16.72997 17427 ft 385 kts 161°
2026-04-20 18:21 47.57933 16.74491 18008 ft 385 kts 167°
2026-04-20 18:22 47.55343 16.75423 18540 ft 382 kts 178°
2026-04-20 18:22 47.52709 16.75757 19051 ft 381 kts 183°
2026-04-20 18:22 47.50050 16.76003 19554 ft 384 kts 183°
2026-04-20 18:22 47.47378 16.76251 20051 ft 387 kts 184°
2026-04-20 18:23 47.44679 16.76505 20549 ft 390 kts 184°
2026-04-20 18:23 47.41957 16.76768 21055 ft 393 kts 184°
2026-04-20 18:23 47.39217 16.77031 21553 ft 396 kts 184°
2026-04-20 18:23 47.36452 16.77296 22034 ft 400 kts 184°
2026-04-20 18:24 47.33665 16.77562 22509 ft 403 kts 185°
2026-04-20 18:24 47.30849 16.77833 22920 ft 407 kts 185°
2026-04-20 18:24 47.28019 16.78110 23008 ft 408 kts 185°
2026-04-20 18:24 47.25184 16.78383 23012 ft 408 kts 185°
2026-04-20 18:25 47.22351 16.78653 23011 ft 408 kts 185°
2026-04-20 18:25 47.19524 16.78918 23016 ft 408 kts 185°
2026-04-20 18:25 47.16691 16.79184 23018 ft 408 kts 185°
2026-04-20 18:25 47.13857 16.79460 23021 ft 409 kts 185°
2026-04-20 18:26 47.11008 16.79736 23459 ft 412 kts 186°
2026-04-20 18:26 47.08140 16.80010 23867 ft 414 kts 186°
2026-04-20 18:26 47.05250 16.80285 24239 ft 418 kts 186°
2026-04-20 18:26 47.02344 16.80556 24600 ft 421 kts 186°
2026-04-20 18:27 46.99410 16.80822 24944 ft 423 kts 186°
2026-04-20 18:27 46.96461 16.81088 25288 ft 426 kts 186°
2026-04-20 18:27 46.93490 16.81360 25631 ft 429 kts 186°
2026-04-20 18:27 46.90490 16.81857 25968 ft 442 kts 178°
2026-04-20 18:28 46.87491 16.83130 26277 ft 457 kts 166°
2026-04-20 18:28 46.84604 16.85249 26585 ft 472 kts 154°
2026-04-20 18:28 46.81963 16.88189 26897 ft 483 kts 145°
2026-04-20 18:28 46.79414 16.91397 27209 ft 485 kts 145°
2026-04-20 18:29 46.76852 16.94607 27522 ft 487 kts 145°
2026-04-20 18:29 46.74265 16.97828 27826 ft 490 kts 145°
2026-04-20 18:29 46.71663 17.01049 28139 ft 492 kts 145°
2026-04-20 18:29 46.69043 17.04274 28436 ft 495 kts 145°
2026-04-20 18:30 46.66404 17.07517 28716 ft 497 kts 145°
2026-04-20 18:30 46.63757 17.10768 28995 ft 499 kts 145°
2026-04-20 18:30 46.61099 17.14039 29260 ft 502 kts 144°
2026-04-20 18:30 46.58426 17.17326 29519 ft 504 kts 144°
2026-04-20 18:31 46.55742 17.20624 29776 ft 507 kts 144°
2026-04-20 18:31 46.53039 17.23941 30029 ft 509 kts 144°
2026-04-20 18:31 46.50326 17.27258 30245 ft 511 kts 144°
2026-04-20 18:31 46.47600 17.30589 30450 ft 513 kts 144°
2026-04-20 18:32 46.44864 17.33930 30665 ft 515 kts 144°
2026-04-20 18:32 46.42151 17.37240 30876 ft 517 kts 144°
2026-04-20 18:32 46.39402 17.40590 31143 ft 516 kts 144°
2026-04-20 18:32 46.36656 17.43933 31440 ft 515 kts 144°
2026-04-20 18:33 46.33878 17.47309 31747 ft 514 kts 144°
2026-04-20 18:33 46.31138 17.50638 31981 ft 514 kts 143°
2026-04-20 18:33 46.25661 17.57274 32056 ft 514 kts 144°
2026-04-20 18:34 46.22926 17.60578 32369 ft 512 kts 144°
2026-04-20 18:34 46.20191 17.63874 32683 ft 511 kts 143°
2026-04-20 18:34 46.17502 17.67118 32989 ft 510 kts 143°
2026-04-20 18:34 46.14786 17.70396 33302 ft 509 kts 143°
2026-04-20 18:35 46.12074 17.73662 33613 ft 508 kts 143°
2026-04-20 18:35 46.09365 17.76915 33923 ft 506 kts 143°
2026-04-20 18:35 46.06659 17.80158 34196 ft 505 kts 143°
2026-04-20 18:35 46.03963 17.83387 34464 ft 503 kts 143°
2026-04-20 18:36 46.01274 17.86606 34734 ft 502 kts 143°
2026-04-20 18:36 45.98600 17.89806 34990 ft 500 kts 143°
2026-04-20 18:36 45.95928 17.92997 35254 ft 498 kts 143°
2026-04-20 18:36 45.93230 17.96210 35508 ft 496 kts 143°
2026-04-20 18:37 45.90611 17.99318 35746 ft 494 kts 143°
2026-04-20 18:37 45.87964 18.02457 35980 ft 493 kts 143°
2026-04-20 18:37 45.85326 18.05583 36203 ft 491 kts 143°
2026-04-20 18:37 45.82694 18.08698 36415 ft 490 kts 144°
2026-04-20 18:38 45.79934 18.11508 36622 ft 484 kts 154°
2026-04-20 18:38 45.76960 18.13670 36806 ft 477 kts 163°
2026-04-20 18:38 45.73838 18.15169 36977 ft 470 kts 171°
2026-04-20 18:38 45.70670 18.16316 37024 ft 469 kts 171°
2026-04-20 18:39 45.64359 18.18612 37026 ft 468 kts 171°
2026-04-20 18:39 45.58054 18.20913 37022 ft 467 kts 171°
2026-04-20 18:40 45.51749 18.23204 37024 ft 467 kts 171°
2026-04-20 18:40 45.45444 18.25488 37022 ft 467 kts 171°
2026-04-20 18:41 45.39138 18.27765 37022 ft 467 kts 171°
2026-04-20 18:41 45.32833 18.30039 37021 ft 467 kts 171°
2026-04-20 18:42 45.26530 18.32305 37019 ft 467 kts 171°
2026-04-20 18:42 45.20226 18.34565 37021 ft 467 kts 171°
2026-04-20 18:43 45.13925 18.36830 37025 ft 467 kts 171°
2026-04-20 18:43 45.07677 18.39412 37023 ft 470 kts 165°
2026-04-20 18:44 45.01510 18.42487 37025 ft 470 kts 165°
2026-04-20 18:44 44.95336 18.45541 37026 ft 470 kts 165°
2026-04-20 18:45 44.89174 18.48585 37035 ft 469 kts 165°
2026-04-20 18:45 44.83053 18.51620 37033 ft 469 kts 165°
2026-04-20 18:46 44.76895 18.54664 37034 ft 469 kts 165°
2026-04-20 18:46 44.70734 18.57694 37040 ft 469 kts 165°
2026-04-20 18:47 44.64576 18.60708 37043 ft 469 kts 165°
2026-04-20 18:47 44.58422 18.63727 37046 ft 468 kts 165°
2026-04-20 18:48 44.52269 18.66732 37051 ft 468 kts 165°
2026-04-20 18:48 44.46112 18.69724 37050 ft 468 kts 165°
2026-04-20 18:49 44.39959 18.72712 37050 ft 468 kts 165°
2026-04-20 18:49 44.33807 18.75696 37047 ft 468 kts 165°
2026-04-20 18:50 44.27653 18.78679 37041 ft 468 kts 165°
2026-04-20 18:50 44.21506 18.81654 37039 ft 468 kts 165°
2026-04-20 18:51 44.15355 18.84619 37028 ft 468 kts 165°
2026-04-20 18:51 44.09206 18.87573 37024 ft 467 kts 165°
2026-04-20 18:52 44.03056 18.90522 37026 ft 467 kts 165°
2026-04-20 18:52 43.96911 18.93457 37022 ft 467 kts 165°
2026-04-20 18:53 43.91802 18.95897 37020 ft 467 kts 165°
2026-04-20 18:53 43.85664 18.98830 37020 ft 467 kts 165°
2026-04-20 18:54 43.79527 19.01750 37022 ft 466 kts 165°
2026-04-20 18:54 43.73397 19.04660 37015 ft 466 kts 165°
2026-04-20 18:55 43.67276 19.07565 37015 ft 465 kts 165°
2026-04-20 18:55 43.61157 19.10458 37009 ft 465 kts 165°
2026-04-20 18:56 43.55036 19.13339 37005 ft 465 kts 165°
2026-04-20 18:56 43.48921 19.16219 37005 ft 464 kts 165°
2026-04-20 18:57 43.42807 19.19091 37004 ft 464 kts 165°
2026-04-20 18:57 43.36701 19.21951 36999 ft 464 kts 165°
2026-04-20 18:58 43.30591 19.24813 36997 ft 464 kts 165°
2026-04-20 18:58 43.24521 19.27651 36994 ft 464 kts 165°
2026-04-20 18:59 43.18414 19.30495 36995 ft 463 kts 165°
2026-04-20 18:59 43.12305 19.33324 36994 ft 463 kts 166°
2026-04-20 19:00 43.06201 19.36151 36999 ft 463 kts 165°
2026-04-20 19:00 43.00095 19.38984 36998 ft 463 kts 165°
2026-04-20 19:01 42.93995 19.41805 37001 ft 463 kts 166°
2026-04-20 19:01 42.87897 19.44604 36999 ft 462 kts 166°
2026-04-20 19:02 42.81802 19.47405 37017 ft 462 kts 166°
2026-04-20 19:02 42.75706 19.50206 37013 ft 462 kts 165°
2026-04-20 19:03 42.69618 19.52999 37006 ft 462 kts 166°
2026-04-20 19:03 42.63530 19.55774 37018 ft 461 kts 166°
2026-04-20 19:04 42.57523 19.58515 36993 ft 461 kts 165°
2026-04-20 19:04 42.51717 19.62319 37001 ft 470 kts 148°
2026-04-20 19:05 42.46587 19.67829 37005 ft 470 kts 144°
2026-04-20 19:05 42.41483 19.73387 36996 ft 471 kts 144°
2026-04-20 19:06 42.36369 19.78929 37004 ft 471 kts 144°
2026-04-20 19:06 42.31288 19.84418 36991 ft 470 kts 144°
2026-04-20 19:07 42.26177 19.89933 36988 ft 470 kts 144°
2026-04-20 19:07 42.21060 19.95452 36988 ft 471 kts 144°
2026-04-20 19:08 42.13382 20.03711 36987 ft 471 kts 144°
2026-04-20 19:09 42.08251 20.09213 36990 ft 471 kts 144°
2026-04-20 19:09 42.03123 20.14694 36992 ft 471 kts 144°
2026-04-20 19:10 41.97994 20.20170 36997 ft 471 kts 144°
2026-04-20 19:10 41.92861 20.25634 36999 ft 470 kts 144°
2026-04-20 19:11 41.87737 20.31081 37001 ft 470 kts 144°
2026-04-20 19:11 41.82606 20.36517 37005 ft 470 kts 144°
2026-04-20 19:12 41.77476 20.41943 37011 ft 470 kts 144°
2026-04-20 19:12 41.72344 20.47361 37009 ft 470 kts 144°
2026-04-20 19:13 41.67213 20.52770 37009 ft 470 kts 144°
2026-04-20 19:13 41.62119 20.58151 37003 ft 470 kts 144°
2026-04-20 19:14 41.56989 20.63567 37001 ft 470 kts 144°
2026-04-20 19:14 41.55197 20.65476 37001 ft 470 kts 144°
2026-04-20 19:15 41.50074 20.70896 37000 ft 470 kts 144°
2026-04-20 19:15 41.44925 20.76282 37000 ft 471 kts 144°
2026-04-20 19:16 41.39774 20.81668 36999 ft 471 kts 144°
2026-04-20 19:16 41.34619 20.87060 37002 ft 471 kts 144°
2026-04-20 19:17 41.29463 20.92455 37004 ft 472 kts 144°
2026-04-20 19:17 41.24295 20.97842 37004 ft 472 kts 144°
2026-04-20 19:18 41.19123 21.03215 36998 ft 472 kts 144°
2026-04-20 19:18 41.13948 21.08588 36992 ft 472 kts 144°
2026-04-20 19:19 41.08770 21.13950 36992 ft 472 kts 144°
2026-04-20 19:19 41.03629 21.19268 36983 ft 472 kts 144°
2026-04-20 19:20 40.98450 21.24610 36985 ft 472 kts 144°
2026-04-20 19:20 40.93269 21.29940 36984 ft 471 kts 144°
2026-04-20 19:21 40.88088 21.35256 36986 ft 472 kts 143°
2026-04-20 19:21 40.83239 21.41110 36985 ft 472 kts 138°
2026-04-20 19:22 40.78438 21.47035 36982 ft 472 kts 138°
2026-04-20 19:22 40.73635 21.52949 36984 ft 472 kts 138°
2026-04-20 19:23 40.68826 21.58854 36986 ft 472 kts 139°
2026-04-20 19:23 40.64010 21.64748 36986 ft 472 kts 139°
2026-04-20 19:24 40.59192 21.70636 36985 ft 473 kts 139°
2026-04-20 19:24 40.54370 21.76510 36986 ft 473 kts 139°
2026-04-20 19:25 40.49540 21.82386 36985 ft 473 kts 139°
2026-04-20 19:25 40.44707 21.88251 36989 ft 473 kts 139°
2026-04-20 19:26 40.39870 21.94114 36991 ft 473 kts 139°
2026-04-20 19:26 40.35062 21.99926 36991 ft 473 kts 139°
2026-04-20 19:27 40.30223 22.05768 36989 ft 473 kts 139°
2026-04-20 19:27 40.25379 22.11610 36990 ft 473 kts 139°
2026-04-20 19:28 40.20530 22.17432 36984 ft 473 kts 139°
2026-04-20 19:28 40.15682 22.23245 36978 ft 473 kts 139°
2026-04-20 19:29 40.10829 22.29047 36971 ft 473 kts 139°
2026-04-20 19:29 40.05976 22.34836 36970 ft 473 kts 139°
2026-04-20 19:30 40.01127 22.40618 36968 ft 472 kts 139°
2026-04-20 19:30 39.96277 22.46398 36971 ft 472 kts 139°
2026-04-20 19:31 39.91422 22.52165 36968 ft 472 kts 139°
2026-04-20 19:31 39.86603 22.57870 36970 ft 472 kts 139°
2026-04-20 19:32 39.81749 22.63612 36966 ft 471 kts 139°
2026-04-20 19:32 39.76898 22.69335 36966 ft 471 kts 139°
2026-04-20 19:33 39.72047 22.75052 36958 ft 471 kts 139°
2026-04-20 19:33 39.67195 22.80754 36959 ft 471 kts 139°
2026-04-20 19:34 39.62333 22.86449 36960 ft 471 kts 139°
2026-04-20 19:34 39.57480 22.92144 36960 ft 471 kts 139°
2026-04-20 19:35 39.52618 22.97827 36953 ft 471 kts 139°
2026-04-20 19:35 39.47753 23.03501 36948 ft 471 kts 139°
2026-04-20 19:36 39.42878 23.09166 36950 ft 471 kts 139°
2026-04-20 19:36 39.38004 23.14828 36952 ft 471 kts 139°
2026-04-20 19:37 39.33129 23.20481 36950 ft 471 kts 139°
2026-04-20 19:37 39.28249 23.26123 36950 ft 471 kts 139°
2026-04-20 19:38 39.23403 23.31727 36951 ft 471 kts 139°
2026-04-20 19:38 39.18521 23.37361 36958 ft 471 kts 139°
2026-04-20 19:39 39.13637 23.42979 36956 ft 471 kts 139°
2026-04-20 19:39 39.08742 23.48592 36958 ft 471 kts 139°
2026-04-20 19:40 39.03851 23.54201 36957 ft 471 kts 139°
2026-04-20 19:40 38.98953 23.59807 36960 ft 471 kts 139°
2026-04-20 19:41 38.94051 23.65400 36960 ft 471 kts 139°
2026-04-20 19:41 38.89205 23.71080 36955 ft 472 kts 137°
2026-04-20 19:42 38.84411 23.76847 36956 ft 472 kts 137°
2026-04-20 19:42 38.79604 23.82599 36958 ft 473 kts 138°
2026-04-20 19:43 38.74763 23.88321 36959 ft 473 kts 138°
2026-04-20 19:43 38.69945 23.93992 36959 ft 474 kts 138°
2026-04-20 19:44 38.65094 23.99720 36958 ft 475 kts 138°
2026-04-20 19:44 38.60234 24.05439 36955 ft 475 kts 138°
2026-04-20 19:45 38.55368 24.11151 36961 ft 475 kts 138°
2026-04-20 19:45 38.50496 24.16865 36965 ft 476 kts 138°
2026-04-20 19:46 38.45619 24.22570 36971 ft 475 kts 138°
2026-04-20 19:46 38.40738 24.28266 36970 ft 475 kts 139°
2026-04-20 19:47 38.35856 24.33957 36971 ft 476 kts 139°
2026-04-20 19:47 38.30974 24.39644 36977 ft 476 kts 139°
2026-04-20 19:48 38.26083 24.45325 36976 ft 476 kts 139°
2026-04-20 19:48 38.21185 24.50993 36978 ft 476 kts 139°
2026-04-20 19:49 38.17112 24.55693 36981 ft 476 kts 140°
2026-04-20 19:49 38.11210 24.61960 36983 ft 475 kts 143°
2026-04-20 19:50 38.05980 24.67101 36979 ft 475 kts 144°
2026-04-20 19:50 38.00753 24.72245 36984 ft 476 kts 143°
2026-04-20 19:51 37.96434 24.76571 36987 ft 476 kts 143°
2026-04-20 19:51 37.91228 24.81837 36986 ft 476 kts 143°
2026-04-20 19:52 37.86080 24.87029 36991 ft 476 kts 143°
2026-04-20 19:52 37.80855 24.92255 36990 ft 476 kts 143°
2026-04-20 19:53 37.75690 24.97404 36988 ft 476 kts 143°
2026-04-20 19:53 37.70493 25.02590 36989 ft 476 kts 143°
2026-04-20 19:54 37.65290 25.07767 36989 ft 476 kts 143°
2026-04-20 19:54 37.60083 25.12933 36992 ft 476 kts 144°
2026-04-20 19:55 37.54876 25.18098 36994 ft 477 kts 143°
2026-04-20 19:55 37.49665 25.23273 36993 ft 477 kts 144°
2026-04-20 19:56 37.44452 25.28425 36993 ft 477 kts 144°
2026-04-20 19:56 37.39229 25.33568 36990 ft 477 kts 144°
2026-04-20 19:57 37.34006 25.38719 36990 ft 477 kts 144°
2026-04-20 19:57 37.28778 25.43858 36992 ft 477 kts 144°
2026-04-20 19:58 37.23543 25.48991 36995 ft 477 kts 144°
2026-04-20 19:58 37.18343 25.54085 36994 ft 477 kts 144°
2026-04-20 19:59 37.13110 25.59204 36992 ft 477 kts 144°
2026-04-20 19:59 37.07868 25.64314 36997 ft 478 kts 144°
2026-04-20 20:00 37.02626 25.69421 36996 ft 478 kts 144°
2026-04-20 20:00 36.97380 25.74530 37001 ft 478 kts 144°
2026-04-20 20:01 36.92129 25.79630 37004 ft 478 kts 144°
2026-04-20 20:01 36.86874 25.84711 37007 ft 478 kts 145°
2026-04-20 20:02 36.81618 25.89796 37006 ft 478 kts 145°
2026-04-20 20:02 36.76357 25.94877 37010 ft 478 kts 145°
2026-04-20 20:03 36.71127 25.99922 37006 ft 478 kts 145°
2026-04-20 20:03 36.65861 26.04993 37009 ft 479 kts 145°
2026-04-20 20:04 36.60581 26.10057 37001 ft 479 kts 145°
2026-04-20 20:04 36.55296 26.15109 37010 ft 479 kts 145°
2026-04-20 20:05 36.50011 26.20170 37018 ft 480 kts 145°
2026-04-20 20:05 36.44723 26.25230 37016 ft 480 kts 146°
2026-04-20 20:06 36.39427 26.30287 37009 ft 480 kts 146°
2026-04-20 20:06 36.34124 26.35333 37015 ft 480 kts 146°
2026-04-20 20:07 36.28814 26.40365 37016 ft 481 kts 146°
2026-04-20 20:07 36.23498 26.45409 37017 ft 481 kts 146°
2026-04-20 20:08 36.18178 26.50441 37017 ft 481 kts 146°
2026-04-20 20:08 36.12887 26.55436 37020 ft 482 kts 146°
2026-04-20 20:09 36.07560 26.60466 37014 ft 482 kts 146°
2026-04-20 20:09 36.02229 26.65495 37015 ft 482 kts 146°
2026-04-20 20:10 35.96892 26.70521 37013 ft 483 kts 146°
2026-04-20 20:10 35.91546 26.75544 37009 ft 483 kts 146°
2026-04-20 20:11 35.86196 26.80558 37005 ft 483 kts 146°
2026-04-20 20:11 35.80833 26.85567 37005 ft 484 kts 147°
2026-04-20 20:12 35.75464 26.90568 37001 ft 484 kts 147°
2026-04-20 20:12 35.70092 26.95578 37000 ft 485 kts 147°
2026-04-20 20:13 35.62027 27.03091 37002 ft 485 kts 147°
2026-04-20 20:13 35.56636 27.08094 37007 ft 486 kts 147°
2026-04-20 20:14 35.51270 27.13058 37013 ft 486 kts 147°
2026-04-20 20:14 35.45831 27.18091 37011 ft 487 kts 147°
2026-04-20 20:15 35.40458 27.23055 37011 ft 487 kts 147°
2026-04-20 20:15 35.35043 27.28043 37009 ft 487 kts 147°
2026-04-20 20:16 35.29621 27.33021 37003 ft 487 kts 147°
2026-04-20 20:16 35.24198 27.38006 37001 ft 487 kts 147°
2026-04-20 20:17 35.18773 27.42990 36998 ft 488 kts 147°
2026-04-20 20:17 35.13347 27.47963 36999 ft 488 kts 147°
2026-04-20 20:18 35.07905 27.52928 37005 ft 488 kts 148°
2026-04-20 20:18 35.02461 27.57891 37005 ft 489 kts 148°
2026-04-20 20:19 34.97010 27.62855 37004 ft 489 kts 148°
2026-04-20 20:19 34.91550 27.67824 37006 ft 490 kts 148°
2026-04-20 20:20 34.86085 27.72788 37013 ft 490 kts 148°
2026-04-20 20:20 34.80613 27.77738 37009 ft 491 kts 148°
2026-04-20 20:21 34.75164 27.82661 37010 ft 491 kts 148°
2026-04-20 20:21 34.69677 27.87621 37011 ft 492 kts 148°
2026-04-20 20:22 34.64187 27.92574 37013 ft 492 kts 148°
2026-04-20 20:22 34.58682 27.97522 37011 ft 492 kts 148°
2026-04-20 20:23 34.53181 28.02475 37013 ft 493 kts 148°
2026-04-20 20:23 34.47672 28.07421 37019 ft 493 kts 148°
2026-04-20 20:24 34.42151 28.12357 37016 ft 493 kts 148°
2026-04-20 20:24 34.36629 28.17301 37018 ft 494 kts 148°
2026-04-20 20:25 34.31096 28.22235 37021 ft 494 kts 148°
2026-04-20 20:25 34.25558 28.27154 37018 ft 494 kts 148°
2026-04-20 20:26 34.20019 28.32079 37014 ft 495 kts 148°
2026-04-20 20:26 34.14512 28.36974 37017 ft 495 kts 149°
2026-04-20 20:27 34.08928 28.41929 37019 ft 495 kts 149°
2026-04-20 20:27 34.03375 28.46849 37020 ft 495 kts 149°
2026-04-20 20:28 33.97856 28.51722 37021 ft 495 kts 149°
2026-04-20 20:28 33.92289 28.56621 37022 ft 496 kts 149°
2026-04-20 20:29 33.86725 28.61527 37022 ft 496 kts 149°
2026-04-20 20:29 33.81155 28.66429 37024 ft 496 kts 149°
2026-04-20 20:30 33.75583 28.71320 37027 ft 496 kts 149°
2026-04-20 20:30 33.70119 28.76408 37024 ft 501 kts 141°
2026-04-20 20:31 33.65031 28.82131 37028 ft 501 kts 141°
2026-04-20 20:31 33.59934 28.87847 37028 ft 501 kts 141°
2026-04-20 20:32 33.54839 28.93566 37029 ft 502 kts 141°
2026-04-20 20:32 33.49738 28.99270 37032 ft 502 kts 141°
2026-04-20 20:33 33.44639 29.04969 37035 ft 502 kts 141°
2026-04-20 20:33 33.39527 29.10660 37035 ft 502 kts 141°
2026-04-20 20:34 33.34419 29.16336 37035 ft 501 kts 142°
2026-04-20 20:34 33.29341 29.21978 37039 ft 501 kts 142°
2026-04-20 20:35 33.24230 29.27646 37039 ft 501 kts 142°
2026-04-20 20:35 33.19117 29.33310 37043 ft 501 kts 142°
2026-04-20 20:36 33.14005 29.38966 37041 ft 501 kts 142°
2026-04-20 20:36 33.08890 29.44608 37042 ft 501 kts 142°
2026-04-20 20:37 33.03772 29.50245 37039 ft 501 kts 142°
2026-04-20 20:37 32.98656 29.55871 37045 ft 501 kts 142°
2026-04-20 20:38 32.93536 29.61493 37046 ft 500 kts 142°
2026-04-20 20:38 32.88423 29.67118 37050 ft 500 kts 142°
2026-04-20 20:39 32.84170 29.71779 37052 ft 500 kts 142°
2026-04-20 20:39 32.79049 29.77366 37048 ft 500 kts 142°
2026-04-20 20:40 32.73926 29.82949 37050 ft 500 kts 142°
2026-04-20 20:40 32.67973 29.89425 37047 ft 499 kts 143°
2026-04-20 20:41 32.63682 29.94091 37046 ft 499 kts 143°
2026-04-20 20:41 32.58566 29.99654 37048 ft 499 kts 143°
2026-04-20 20:42 32.53448 30.05210 37050 ft 499 kts 143°
2026-04-20 20:42 32.48324 30.10749 37050 ft 498 kts 143°
2026-04-20 20:43 32.43204 30.16278 37051 ft 498 kts 143°
2026-04-20 20:43 32.38112 30.21755 37051 ft 498 kts 143°
2026-04-20 20:44 32.32986 30.27258 37052 ft 498 kts 143°
2026-04-20 20:44 32.27864 30.32758 37054 ft 497 kts 143°
2026-04-20 20:45 32.22745 30.38248 37055 ft 497 kts 143°
2026-04-20 20:45 32.17618 30.43727 37057 ft 497 kts 143°
2026-04-20 20:46 32.12496 30.49186 37051 ft 496 kts 144°
2026-04-20 20:46 32.07378 30.54651 37056 ft 496 kts 144°
2026-04-20 20:47 32.02260 30.60105 37056 ft 496 kts 144°
2026-04-20 20:47 31.97147 30.65549 37056 ft 495 kts 144°
2026-04-20 20:48 31.92030 30.70983 37054 ft 495 kts 144°
2026-04-20 20:48 31.86911 30.76402 36930 ft 495 kts 144°
2026-04-20 20:49 31.84349 30.79110 36670 ft 495 kts 144°
2026-04-20 20:49 31.81788 30.81817 36327 ft 495 kts 144°
2026-04-20 20:49 31.79228 30.84525 35905 ft 495 kts 144°
2026-04-20 20:49 31.76669 30.87227 35500 ft 495 kts 143°
2026-04-20 20:50 31.74143 30.89892 35096 ft 495 kts 143°
2026-04-20 20:50 31.71568 30.92604 34696 ft 498 kts 143°
2026-04-20 20:50 31.68976 30.95332 34300 ft 504 kts 143°
2026-04-20 20:50 31.66362 30.98087 33880 ft 503 kts 143°
2026-04-20 20:51 31.63769 31.00823 33424 ft 500 kts 143°
2026-04-20 20:51 31.61193 31.03539 32970 ft 496 kts 143°
2026-04-20 20:51 31.58641 31.06228 32453 ft 491 kts 142°
2026-04-20 20:51 31.56040 31.08778 31963 ft 482 kts 149°
2026-04-20 20:52 31.53228 31.10814 31510 ft 468 kts 159°
2026-04-20 20:52 31.50284 31.12311 31038 ft 456 kts 167°
2026-04-20 20:52 31.47265 31.13291 30564 ft 445 kts 175°
2026-04-20 20:52 31.44242 31.13880 30073 ft 438 kts 177°
2026-04-20 20:53 31.41239 31.14440 29504 ft 435 kts 177°
2026-04-20 20:53 31.38266 31.14994 28948 ft 431 kts 177°
2026-04-20 20:53 31.35315 31.15545 28397 ft 428 kts 177°
2026-04-20 20:53 31.32387 31.16096 27877 ft 424 kts 176°
2026-04-20 20:54 31.29488 31.16642 27359 ft 421 kts 176°
2026-04-20 20:54 31.26604 31.17183 26853 ft 418 kts 176°
2026-04-20 20:54 31.23743 31.17717 26368 ft 415 kts 176°
2026-04-20 20:54 31.20904 31.18246 25889 ft 412 kts 176°
2026-04-20 20:55 31.18081 31.18773 25425 ft 409 kts 176°
2026-04-20 20:55 31.15278 31.19295 24968 ft 407 kts 175°
2026-04-20 20:55 31.12491 31.19812 24510 ft 404 kts 175°
2026-04-20 20:55 31.09724 31.20325 24057 ft 402 kts 175°
2026-04-20 20:56 31.06973 31.20836 23607 ft 399 kts 175°
2026-04-20 20:56 31.04279 31.21339 23115 ft 396 kts 175°
2026-04-20 20:56 31.01530 31.21852 22589 ft 394 kts 175°
2026-04-20 20:56 30.98874 31.22347 22126 ft 391 kts 175°
2026-04-20 20:57 30.96196 31.22845 21660 ft 388 kts 174°
2026-04-20 20:57 30.93538 31.23337 21211 ft 385 kts 174°
2026-04-20 20:57 30.90901 31.23823 20768 ft 383 kts 174°
2026-04-20 20:57 30.88281 31.24307 20329 ft 380 kts 174°
2026-04-20 20:58 30.85675 31.24626 19903 ft 374 kts 183°
2026-04-20 20:58 30.83084 31.24606 19475 ft 371 kts 185°
2026-04-20 20:58 30.80518 31.24488 19053 ft 367 kts 189°
2026-04-20 20:58 30.77992 31.24183 18649 ft 363 kts 192°
2026-04-20 20:59 30.75497 31.23749 18223 ft 361 kts 192°
2026-04-20 20:59 30.73016 31.23326 17777 ft 359 kts 192°
2026-04-20 20:59 30.70553 31.22901 17347 ft 357 kts 192°
2026-04-20 20:59 30.68113 31.22473 16932 ft 354 kts 192°
2026-04-20 21:00 30.65679 31.22040 16522 ft 352 kts 192°
2026-04-20 21:00 30.63270 31.21607 16121 ft 350 kts 192°
2026-04-20 21:00 30.60872 31.21171 15742 ft 347 kts 192°
2026-04-20 21:00 30.58495 31.20734 15360 ft 345 kts 192°
2026-04-20 21:01 30.56132 31.20295 14978 ft 343 kts 192°
2026-04-20 21:01 30.53783 31.19853 14607 ft 341 kts 192°
2026-04-20 21:01 30.51454 31.19411 14231 ft 339 kts 192°
2026-04-20 21:01 30.49135 31.18967 13862 ft 337 kts 192°
2026-04-20 21:02 30.46835 31.18523 13447 ft 335 kts 192°
2026-04-20 21:02 30.44546 31.18082 13033 ft 333 kts 192°
2026-04-20 21:02 30.42267 31.17643 12610 ft 331 kts 192°
2026-04-20 21:02 30.40004 31.17207 12196 ft 329 kts 192°
2026-04-20 21:03 30.37748 31.16772 11789 ft 327 kts 192°
2026-04-20 21:03 30.35505 31.16339 11380 ft 326 kts 192°
2026-04-20 21:03 30.33273 31.15909 10968 ft 325 kts 192°
2026-04-20 21:03 30.31080 31.15486 10637 ft 321 kts 192°
2026-04-20 21:04 30.28921 31.15071 10510 ft 310 kts 192°
2026-04-20 21:04 30.26816 31.14670 10380 ft 304 kts 192°
2026-04-20 21:04 30.24745 31.14279 10054 ft 301 kts 192°
2026-04-20 21:04 30.22681 31.13887 9681 ft 299 kts 192°
2026-04-20 21:05 30.20634 31.13498 9304 ft 298 kts 192°
2026-04-20 21:05 30.18597 31.13109 8902 ft 295 kts 192°
2026-04-20 21:05 30.16591 31.12673 8494 ft 292 kts 194°
2026-04-20 21:05 30.14608 31.12179 8073 ft 290 kts 195°
2026-04-20 21:06 30.12642 31.11681 7653 ft 288 kts 195°
2026-04-20 21:06 30.10692 31.11183 7268 ft 285 kts 195°
2026-04-20 21:06 30.08801 31.10702 6901 ft 272 kts 195°
2026-04-20 21:06 30.06988 31.10242 6565 ft 264 kts 195°
2026-04-20 21:07 30.05220 31.09792 6215 ft 255 kts 195°
2026-04-20 21:07 30.03503 31.09379 5858 ft 251 kts 189°
2026-04-20 21:07 30.01787 31.09605 5502 ft 251 kts 157°
2026-04-20 21:07 30.00266 31.10598 5179 ft 253 kts 146°
2026-04-20 21:08 29.98813 31.11740 4857 ft 252 kts 145°
2026-04-20 21:08 29.97390 31.12882 4623 ft 246 kts 145°
2026-04-20 21:08 29.96003 31.13997 4413 ft 241 kts 144°
2026-04-20 21:08 29.94808 31.15306 4208 ft 236 kts 120°
2026-04-20 21:09 29.94259 31.17047 4003 ft 231 kts 92°
2026-04-20 21:09 29.94448 31.18844 3805 ft 224 kts 65°
2026-04-20 21:09 29.95271 31.20327 3599 ft 219 kts 45°
2026-04-20 21:09 29.96271 31.21647 3404 ft 218 kts 45°
2026-04-20 21:10 29.97266 31.22958 3205 ft 215 kts 45°
2026-04-20 21:10 29.98225 31.24230 3011 ft 204 kts 45°
2026-04-20 21:10 29.99142 31.25445 2879 ft 197 kts 45°
2026-04-20 21:10 30.00015 31.26603 2795 ft 188 kts 44°
2026-04-20 21:11 30.00868 31.27734 2656 ft 186 kts 45°
2026-04-20 21:11 30.01713 31.28853 2559 ft 184 kts 45°
2026-04-20 21:11 30.02539 31.29950 2494 ft 175 kts 44°
2026-04-20 21:11 30.03321 31.30990 2346 ft 168 kts 45°
2026-04-20 21:12 30.04065 31.31977 2156 ft 163 kts 44°
2026-04-20 21:12 30.04790 31.32942 1945 ft 153 kts 43°
2026-04-20 21:12 30.05471 31.33846 1753 ft 147 kts 44°
2026-04-20 21:12 30.06137 31.34729 1559 ft 145 kts 44°
2026-04-20 21:13 30.06797 31.35606 1363 ft 144 kts 45°
2026-04-20 21:13 30.07458 31.36483 1176 ft 144 kts 46°
2026-04-20 21:13 30.08112 31.37353 991 ft 144 kts 45°
2026-04-20 21:13 30.08771 31.38229 794 ft 145 kts 45°
2026-04-20 21:14 30.09429 31.39110 615 ft 145 kts 45°
2026-04-20 21:14 30.10085 31.39993 407 ft 144 kts 44°
2026-04-20 21:14 30.10710 31.40804 374 ft 120 kts 48°
2026-04-20 21:14 30.11161 31.41411 373 ft 76 kts 48°
2026-04-20 21:15 30.11381 31.41583 375 ft 24 kts 33°
2026-04-20 21:15 30.11509 31.41628 375 ft 14 kts
2026-04-20 21:15 30.11567 31.41602 375 ft 10 kts 305°
2026-04-20 21:15 30.11555 31.41537 375 ft 9 kts 227°
2026-04-20 21:16 30.11512 31.41482 375 ft 12 kts 229°
2026-04-20 21:16 30.11450 31.41399 375 ft 14 kts 229°
2026-04-20 21:16 30.11401 31.41310 375 ft 13 kts 266°
2026-04-20 21:16 30.11419 31.41204 375 ft 14 kts 250°
2026-04-20 21:17 30.11371 31.41135 375 ft 10 kts 228°
2026-04-20 21:17 30.11309 31.41051 375 ft 18 kts 230°
2026-04-20 21:17 30.11216 31.40927 375 ft 22 kts 230°
2026-04-20 21:17 30.11110 31.40787 375 ft 24 kts 229°
2026-04-20 21:18 30.11004 31.40647 375 ft 23 kts 229°
2026-04-20 21:18 30.10901 31.40508 374 ft 23 kts 231°
2026-04-20 21:18 30.10801 31.40378 374 ft 20 kts 230°
2026-04-20 21:18 30.10703 31.40248 374 ft 22 kts 228°
2026-04-20 21:19 30.10597 31.40107 374 ft 24 kts 229°
2026-04-20 21:19 30.10501 31.39981 374 ft 15 kts 229°
2026-04-20 21:19 30.10508 31.39874 374 ft 15 kts 321°
2026-04-20 21:20 30.10666 31.39820 374 ft 14 kts 346°
2026-04-20 21:20 30.10742 31.39796 374 ft 11 kts 345°
2026-04-20 21:20 30.10811 31.39771 374 ft 9 kts 330°
2026-04-20 21:20 30.10815 31.39711 374 ft 7 kts 260°
2026-04-20 21:21 30.10808 31.39682 374 ft 1 kts 253°
2026-04-20 21:21 30.10807 31.39676 374 ft 0 kts 256°